VIZARD (RS33S SXC3-215) (53386 NORAD) Tracking and Keplerian Element Data

This shows tracking and keplerian element data for the satellite.

Feedback or suggestion? Click here.




ElementValue
Catalog53386
NameVIZARD (RS33S SXC3-215)
Epoch Orbit5876
Epoch Day239.13717655
Epoch Year2023
RAAN148.3237
Inclination97.4024
Eccentricity0.0007267
Argument of Perigee125.5561
Mean Anonmoly234.6369
Mean Motion15.51887165
Decay Rate0.00066895
L11 53386U 22096S 23239.13717655 .00066895 00000+0 11093-2 0 9997
L22 53386 97.4024 148.3237 0007267 125.5561 234.6369 15.51887165 58764



Live tracking and technical data element details for VIZARD (RS33S SXC3-215) (NORAD 53386). VIZARD (RS33S SXC3-215) can be tracked NOW for your location showing map with azimuth and elevation plus other details from your city location.







IsCatalogInMostPopularTable: catalog: 53386, numindb: 59
Update: records affected: 1



GetName: 53386 VIZARD (RS33S SXC3-215)

Hit Count: updated at: Thu, 23 Jan 2025 17:55:15 GMT